Preview of NWS' New Version of Forecast
This preview is not operational and should not be used for support decisions.

Regional Weather Roundup (RWR)

Issued by National Weather Service (NWS)

                            
000
ASUS42 KTBW 220416
RWRFL 
FLORIDA REGIONAL WEATHER ROUNDUP
NATIONAL WEATHER SERVICE TAMPA BAY RUSKIN FL
1100 PM EST THU FEB 21 2019

NOTE: "FAIR" INDICATES FEW OR NO CLOUDS BELOW 12,000 FEET WITH NO
SIGNIFICANT WEATHER AND/OR OBSTRUCTIONS TO VISIBILITY.

FLZ001>010-012>015-112-114-115-220500-
PANHANDLE FLORIDA
  
CITY           SKY/WX    TMP DP  RH WIND       PRES   REMARKS
PENSACOLA      FOG       69  67  93 E3        30.07S VSB 1/4          
PENSACOLA NAS  FOG       68  68 100 E5        30.07R VSB 1/2          
MILTON NAS     CLOUDY    70  70 100 SE6       30.08  FOG              
CRESTVIEW      CLOUDY    69  68  96 VRB5      30.09S FOG              
VALPARAISO     FOG       68  68 100 SE10      30.07S VSB 7/8          
MARY ESTHER    FOG       68  67  98 SE8       30.07S VSB 3/8          
PANAMA CITY    FOG       69  68  96 SE7       30.09S VSB 3/4          
TYNDALL AFB    FOG       68  68 100 SE9       30.09S VSB 3/4          
APALACHICOLA   FOG       66  65  96 SE3       30.10F VSB 1/4          

STATION/POSITION SKY/WX   TEMP    WIND        PRES    WAVE   SWELL
                          AIR SEA DIR/SP/G            HT/PER HT/PER
                          (F)     (DEG/KT/KT) (MB)    (FT/S) (FT/S)
30.1N   87.6W                                 1018.2    3/ 6   3/ 6
29.2N   88.2W                     170/  8/  8 1017.8R   3/ 6   3/ 6
PANAMA CITY BEAC           66 65  120/ 10/ 11 1019.4R
TOWER C                    66     150/ 12/ 13 1019.7F

$$
FLZ011-016>038-118-127-128-134-139-239-220500-
NORTH FLORIDA
  
CITY           SKY/WX    TMP DP  RH WIND       PRES   REMARKS
MARIANNA       MOCLDY    69  68  96 S5        30.09R                  
TALLAHASSEE    CLOUDY    69  68  96 SE3       30.11S                  
PERRY          FOG       68  67  97 S3        30.13S VSB 1/4          
LIVE OAK       CLOUDY    66  66 100 CALM      30.13S                  
CROSS CITY     CLOUDY    64  64  99 CALM      30.13S FOG              
LAKE CITY      FAIR      64  61  88 NW3       30.14R                  
GAINESVILLE    FAIR      70  64  81 CALM      30.15S                  
WILLISTON        N/A    N/A N/A N/A MISG        N/A                   
PALATKA        CLOUDY   N/A N/A N/A W6        30.13R                  
MAYPORT NAS    FAIR      70  67  90 S9        30.12S                  
JACKSONVILLE   FAIR      70  66  87 S3        30.12R                  
JAX NAS        FAIR      73  66  78 S6        30.13R                  
JAX CECIL      CLEAR     70  66  88 VRB3      30.12S                  
FERNANDINA BEA FAIR      69  67  92 S8        30.13R                  
ST AUGUSTINE   FAIR      69  67  93 S3        30.14R                  
PALM COAST     CLOUDY    68  66  94 CALM      30.13S                  

STATION/POSITION SKY/WX   TEMP    WIND        PRES    WAVE   SWELL
                          AIR SEA DIR/SP/G            HT/PER HT/PER
                          (F)     (DEG/KT/KT) (MB)    (FT/S) (FT/S)
SHELL POINT      NOT AVBL
KEATON BEACH               69     230/  5/  5 1020.4R
CEDAR KEY                  71     250/  2/  2 1020.2R
FERNANDINA                        150/  6/  8   N/A
30.7N   81.3W                 61                N/A     3/ 8
MAYPORT                    71 60  180/  6/  9 1020.1R
31.4N   80.9W              64 59  180/  6/  8 1019.9R   3/ 8   3/ 8
ST AUGUSTINE               66 62  140/ 11/ 11 1020.5R

$$
FLZ040-043>046-052-053-057-058-063-144-220500-
INTERIOR CENTRAL FLORIDA
  
CITY           SKY/WX    TMP DP  RH WIND       PRES   REMARKS
OCALA          FAIR      70  66  87 CALM      30.14S                  
LEESBURG       MOCLDY    71  70  96 N3        30.14S                  
SANFORD        CLOUDY    72  69  90 SE6       30.13R                  
ORLANDO EXEC   CLOUDY    75  68  78 S8        30.13S                  
ORLANDO INTL   CLOUDY    74  68  81 S6        30.13R                  
KISSIMMEE      CLOUDY    74  70  87 SE6       30.14S                  
WINTER HAVEN   CLOUDY    77  70  79 VRB5      30.14R                  
LAKELAND       FAIR      70  66  88 N5        30.14S                  
BARTOW         DRIZZLE   75  70  83 CALM      30.13S                  
SEBRING        MOCLDY    73  69  85 SE9       30.14S                  
OKEECHOBEE     FAIR      70  66  88 CALM      30.14R                  

$$
FLZ041-047-054-059-064-141-147-220500-
EAST CENTRAL FLORIDA
  
CITY           SKY/WX    TMP DP  RH WIND       PRES   REMARKS
DAYTONA BEACH  FAIR      69  69 100 CALM      30.13S                  
DELAND         MOCLDY    68  68 100 CALM      30.13S                  
JFK SPACE CTR  MOCLDY   N/A N/A N/A SE8         N/A                   
PATRICK AFB    FAIR      69  69 100 S8        30.14R                  
MELBOURNE      FAIR      74  68  81 S6        30.14R                  
VERO BEACH     FAIR      72  68  87 S5        30.15R                  
FT PIERCE      FAIR      73  68  84 CALM      30.14R                  
STUART         FAIR      73  68  83 SE6       30.15F                  

STATION/POSITION SKY/WX   TEMP    WIND        PRES    WAVE   SWELL
                          AIR SEA DIR/SP/G            HT/PER HT/PER
                          (F)     (DEG/KT/KT) (MB)    (FT/S) (FT/S)
28.5N   80.2W              71     170/  4/  6 1021.2R   4/ 8   3/ 8
28.9N   78.5W              75 77  140/ 14/ 17 1022.0S   5/ 8   3/ 8
TRIDENT PIER               68 69  150/  5/  7 1021.9R
28.4N   80.5W                 67                N/A     3/ 8

$$
FLZ050-056-061-142-242-148-248-149-249-151-251-155-255-
160-260-220500-
WEST CENTRAL FLORIDA
  
CITY           SKY/WX    TMP DP  RH WIND       PRES   REMARKS
CRYSTAL RIVER  FAIR      68  66  94 CALM      30.14S                  
INVERNESS      MOCLDY    70  70 100 CALM      30.14S                  
BROOKSVILLE    MOCLDY    68  67  96 CALM      30.15R                  
CLEARWATER AIR FAIR      70  68  94 CALM      30.13R                  
ST PETE CLEARW FAIR      70  67  90 NE3       30.12R                  
TAMPA INTL     MOCLDY    74  68  81 CALM      30.14R                  
TAMPA EXEC     CLOUDY    68  66  94 CALM      30.14S                  
PLANT CITY     CLOUDY    73  68  83 CALM      30.15S                  
PETER O KNIGHT CLOUDY   N/A N/A N/A CALM      30.14R                  
ST PETERSBURG  FAIR      73  69  87 SW3       30.10S                  
SARASOTA       MOCLDY    71  69  93 E5        30.11R                  
VENICE         MOCLDY    73  72  94 S5        30.12S                  

STATION/POSITION SKY/WX   TEMP    WIND        PRES    WAVE   SWELL
                          AIR SEA DIR/SP/G            HT/PER HT/PER
                          (F)     (DEG/KT/KT) (MB)    (FT/S) (FT/S)
27.3N   84.2W                 72                N/A     2/ 7
CLEARWATER BEACH           72 73  250/  2/  3 1020.2R
MIDDLE TAMPA BAY           72     170/  2/  2 1020.1R
VENICE                     74 71  150/  8/  9 1019.7R

$$
FLZ066-069-070-075>078-162-262-165-265-220500-
SOUTHWEST FLORIDA AND KEYS
  
CITY           SKY/WX    TMP DP  RH WIND       PRES   REMARKS
PUNTA GORDA    CLOUDY    74  69  85 SE3       30.14R                  
FT MYERS       CLOUDY    74  70  87 SE3       30.12R                  
SOUTHWEST INTL FAIR      72  68  87 SE5       30.12S                  
NAPLES         FAIR      74  67  78 E7        30.12S                  
MARCO ISLAND   FAIR     N/A N/A N/A E8        30.13S                  
IMMOKALEE      MOCLDY    70  66  88 SE8       30.11S                  
MARATHON       FAIR      80  71  74 E10G16    30.10S                  
KEY WEST NAS   FAIR      78  70  76 E16       30.10S                  
KEY WEST INTL  FAIR      79  70  74 SE15      30.10S                  

STATION/POSITION SKY/WX   TEMP    WIND        PRES    WAVE   SWELL
                          AIR SEA DIR/SP/G            HT/PER HT/PER
                          (F)     (DEG/KT/KT) (MB)    (FT/S) (FT/S)
NAPLES                     76 76  110/  4/  6 1019.8S
26.0N   85.6W              78 80  120/ 12/ 16 1018.0
DRY TORTUGAS               78     120/ 17/ 18 1018.9R
SAND KEY                   78                 1019.1R
SOMBRERO KEY               78                 1018.6F
LONG KEY                   78 79  110/ 12/ 14 1019.4R

$$
FLZ067-068-071>074-168-172>174-220500-
SOUTHEAST FLORIDA 
  
CITY           SKY/WX    TMP DP  RH WIND       PRES   REMARKS
W PALM BEACH   FAIR      76  69  79 SE14      30.14S                  
BOCA RATON     PTCLDY    77  72  83 SE12      30.13S                  
FT LAUDER-EXEC FAIR      77  73  87 SE13      30.13S                  
FT LAUDERDALE  FAIR      77  74  90 SE13      30.12S                  
POMPANO BEACH  FAIR      77  71  82 SE12      30.13S                  
PEMBROKE PINES FAIR      76  70  82 E7        30.14S                  
OPA LOCKA      FAIR      76  70  82 E8        30.13F                  
MIAMI          FAIR      76  72  87 E9        30.13S                  
WEST KENDALL   FAIR      73  69  87 E6        30.12F                  
HOMESTEAD      FAIR      75  69  81 E6        30.11F                  

STATION/POSITION SKY/WX   TEMP    WIND        PRES    WAVE   SWELL
                          AIR SEA DIR/SP/G            HT/PER HT/PER
                          (F)     (DEG/KT/KT) (MB)    (FT/S) (FT/S)
PORT EVERGLADES            78     130/  6/ 11 1020.3S
VIRGINIA KEY               78 80   90/ 10/ 12 1019.5F
LAKE WORTH                 77 78  140/ 19/ 21 1021.4S
FOWEY ROCKS                78 77  100/ 13/ 14 1020.7R
SETTLEMENT POINT           76     120/  7/ 10 1021.2F

$$